908  
ASUS43 KDTX 281710  
RWRMI  
MICHIGAN HOURLY REGIONAL WEATHER ROUNDUP  
NATIONAL WEATHER SERVICE DETROIT/PONTIAC MI  
1200 PM EST SAT FEB 28 2015  
 
NOTE: "FAIR" INDICATES FEW OR NO CLOUDS BELOW 12,000 FEET WITH NO  
SIGNIFICANT WEATHER AND/OR TO VISIBILITY
.  
 
MIZ047>049-052>055-059>063-066>070-074>076-081>083-281800-  
SOUTHEAST LOWER MICHIGAN  
 
CITY SKY/WX TMP DP RH WIND PRES REMARKS
 
ADRIAN SUNNY 14 0 53 CALM 30.76S  
ALMA SUNNY 16 7 68 S9 30.71F WCI 4  
ANN ARBOR SUNNY 15 2 56 SW12 30.74F WCI 2  
BAD AXE SUNNY 17 8 67 W13 30.71S WCI 4  
CARO SUNNY 19 4 52 SW10 30.71S WCI 7  
DETROIT CITY SUNNY 19 3 49 SW10 30.76F WCI 7  
DETROIT MOSUNNY 18 4 54 S10 30.77F WCI 6  
FLINT SUNNY 18 0 45 SW9 30.72F WCI 7  
GROSSE ILE SUNNY 14 5 67 S6 30.76F WCI 5  
HILLSDALE SUNNY 15 1 53 S7 30.69S WCI 6  
HOWELL SUNNY 17 1 51 S6 30.71S WCI 8  
 
CITY SKY/WX TMP DP RH WIND PRES REMARKS
 
JACKSON SUNNY 16 2 54 S5 30.70F WCI 9  
LAMBERTVILLE FAIR 21 3 45 CALM 30.76F  
LANSING SUNNY 16 -3 43 S10 30.72S WCI 4  
LAPEER FAIR 19 3 50 SW7 30.71F WCI 9  
MASON SUNNY 17 1 49 SW6 30.71S WCI 8  
MONROE SUNNY 18 3 53 SW5 30.75F WCI 11  
MT. CLEMENS MOSUNNY 19 5 53 S10 30.73S WCI 8  
PONTIAC MOSUNNY 18 2 49 S10 30.70F WCI 6  
PORT HOPE N/A 17 6 62 SW9G18 30.69F WCI 6  
PORT HURON SUNNY 18 3 53 S8 30.75S WCI 7  
TRI CITIES SUNNY 18 7 62 SW13 30.72S WCI 5  
TROY SUNNY 22 1 40 SW8 30.75F WCI 12  
SAGINAW HB SUNNY 19 7 58 SW12 30.72F WCI 7  

 
MIZ043>046-050>051-056>058-064>065-071>073-077>080-281800-  
SOUTHWEST LOWER MICHIGAN  
 
CITY SKY/WX TMP DP RH WIND PRES REMARKS
 
BATTLE CREEK SUNNY 14 -2 49 S12 30.71S WCI 0  
BENTON HARBOR SUNNY 13 -2 51 SW7 30.73S WCI 3  
BIG RAPIDS SUNNY 19 8 61 W7 30.65S WCI 10  
COLDWATER SUNNY 16 1 51 S7 30.71S WCI 6  
FREMONT FAIR 18 8 64 S10 30.68S WCI 6  
HOLLAND SUNNY 16 5 62 S8 30.72F WCI 5  
GRAND RAPIDS MOSUNNY 15 5 64 S7 30.71F WCI 5  
IONIA FAIR 17 5 60 S8 30.71S WCI 6  
KALAMAZOO SUNNY 14 -2 49 S10 30.72S WCI 1  
LUDINGTON MOSUNNY 21 9 60 SW13 30.68S WCI 8  
MARSHALL SUNNY 15 -1 51 SW8 30.71S WCI 3  
MOUNT PLEASANT SUNNY 18 8 64 SW10G16 30.68F WCI 7  
MUSKEGON FLURRIES 18 10 71 S14 30.71S WCI 4  
SOUTH HAVEN SUNNY 17 -2 43 SE5 30.72F WCI 10  

 
MIZ016>042-281800-  
NORTHERN LOWER MICHIGAN  
 
CITY SKY/WX TMP DP RH WIND PRES REMARKS
 
ALPENA SUNNY 20 5 52 S7 30.63F WCI 11  
BEAVER ISLAND PTSUNNY 17 10 71 SW12G20 30.60S WCI 5  
BELLAIRE SUNNY 20 7 56 SW6 30.65S WCI 13  
CADILLAC SUNNY 18 5 56 SW10 30.58S WCI 6  
CHARLEVOIX SUNNY 18 8 63 SW13 30.65S WCI 5  
FRANKFORT PTSUNNY 19 10 69 SW10G17 30.65S WCI 7  
GAYLORD SUNNY 17 4 56 SW8 30.56S WCI 7  
GRAYLING SUNNY 19 5 54 S6 30.60S WCI 11  
HARBOR SPRINGS SUNNY 19 8 61 SW8 30.62S WCI 9  
HOUGHTON LAKE SUNNY 18 6 59 W8 30.62S WCI 8  
MANISTEE SUNNY 21 5 49 SW9G20 30.66S WCI 11  
OSCODA SUNNY 20 8 57 SW10 30.66S WCI 9  
PELLSTON SUNNY 18 5 57 W15G21 30.62R WCI 4  
ROGERS CITY SUNNY 22 8 54 SW12 30.63R WCI 10  
TRAVERSE CITY MOSUNNY 20 7 57 SW10G20 30.63S WCI 9  

 
MIZ007>008-015-281800-  
EASTERN UPPER MICHIGAN  
 
CITY SKY/WX TMP DP RH WIND PRES REMARKS
 
KINROSS SUNNY 21 5 49 SW9 30.57S WCI 11  
MACKINAC ISLAN SUNNY 16 8 70 W10G20 30.60S WCI 3  
NEWBERRY SUNNY 16 1 53 SW12 30.55S WCI 2  
S. S. MARIE SUNNY 13 0 56 SE6 30.57F WCI 4  
MUNISING N/A 20 -1 40 S9 30.54F WCI 9  

 
MIZ004>006-011>014-085-281800-  
CENTRAL UPPER MICHIGAN  
 
CITY SKY/WX TMP DP RH WIND PRES REMARKS
 
MANISTIQUE SUNNY 17 4 56 SW7 30.58S WCI 7  
ESCANABA SUNNY 14 3 62 S9 30.60F WCI 2  
MENOMINEE SUNNY 14 0 52 SW5 30.61S WCI 6  
SAWYER-GWINN SUNNY 14 -4 44 S7 30.48F WCI 4  

 
MIZ001>003-009>011-084-281800-  
WESTERN UPPER MICHIGAN  
 
CITY SKY/WX TMP DP RH WIND PRES REMARKS
 
IRON MOUNTAIN SUNNY 18 0 45 SW7 30.50F WCI 9  
HOUGHTON SUNNY 14 1 56 VRB7 30.44F WCI 4  
COPPER HARBOR N/A 16 6 65 N10 30.46F WCI 4  
IRONWOOD SUNNY 16 1 53 S13 30.42F WCI 2  

 
 
ABBREVIATIONS USED IN REMARKS  
TC - TEMPERATURE IN CELSIUS  
WCI - WIND CHILL INDEX  
HX - HEAT INDEX  
VSB - VISIBILITY  
 
CLICK HERE TO GO TO PREVIOUS BULLETINS.

The Nexlab MI Page Main Text Page